sat.trackr.live / text

‹ back to catalog

QIANFAN-115

NORAD 68642 · 2026-075G

PAYLOAD ACTIVE UNKNOWN

§ Identity

Operator
Country
PRC
Launch date
2026-04-07
Launch site
WSC
Launch vehicle
Mass (kg)
RCS (m²)

External: N2YO · Heavens-Above · Gunter

§ Orbital elements

Epoch: 2026-05-24T19:22:01.026912Z

Period
105.94 min
Inclination
88.9873°
Eccentricity
0.0009788
Mean motion
13.59307647 rev/d
Perigee alt
1,031.0 km
Apogee alt
1,045.5 km
Semi-major
7,416.3 km
B*
3.7306e-5
RAAN
323.4210°
Arg perigee
72.9643°
Mean anomaly
287.2585°
Rev number
663

§ Raw data

QIANFAN-1151 68642U 26075G   26144.80695633  .00000040  00000+0  37306-4 0  99992 68642  88.9873 323.4210 0009788  72.9643 287.2585 13.59307647  6636

JSON: /api/v1/satellites/68642 · /tle

For live sub-satellite position, see the globe view (requires WebGL).

§ Visibility from observer

Set your observer location to see the next 7 days of passes ≥ 10°. The values pass through the URL so the page stays shareable.

No JS? Fill the form by hand. The geolocation button needs JavaScript.